TimeMST,TemperatureF,Dew PointF,Humidity,Sea Level PressureIn,VisibilityMPH,Wind Direction,Wind SpeedMPH,Gust SpeedMPH,PrecipitationIn,Events,Conditions,WindDirDegrees,DateUTC
12:56 AM,26.1,18.0,71,29.97,10.0,West,13.8,-,N/A,,Clear,270,2013-01-05 07:56:00
1:56 AM,28.0,19.9,72,29.97,10.0,West,25.3,-,N/A,,Clear,280,2013-01-05 08:56:00
2:56 AM,25.0,18.0,75,30.01,10.0,WNW,23.0,34.5,N/A,,Clear,300,2013-01-05 09:56:00
3:56 AM,21.0,15.1,78,30.01,10.0,WNW,21.9,-,N/A,,Clear,290,2013-01-05 10:56:00
4:56 AM,16.0,10.9,81,30.05,10.0,WNW,25.3,34.5,N/A,,Clear,300,2013-01-05 11:56:00
6:24 AM,12.2,8.6,85,29.97,10.0,WNW,28.8,-,N/A,,Mostly Cloudy,300,2013-01-05 13:24:00
6:56 AM,15.1,10.9,84,30.12,9.0,NW,23.0,31.1,N/A,,Overcast,310,2013-01-05 13:56:00
7:31 AM,14.0,10.4,86,30.01,10.0,NW,18.4,28.8,N/A,,Partly Cloudy,310,2013-01-05 14:31:00
7:56 AM,14.0,10.0,84,30.15,10.0,NW,17.3,-,N/A,,Partly Cloudy,310,2013-01-05 14:56:00
8:51 AM,15.8,10.4,79,30.07,10.0,NW,21.9,-,N/A,,Mostly Cloudy,310,2013-01-05 15:51:00
8:56 AM,15.1,10.9,84,30.20,10.0,NW,20.7,-,N/A,,Scattered Clouds,310,2013-01-05 15:56:00
9:09 AM,15.8,10.4,79,30.08,10.0,NW,24.2,-,N/A,,Mostly Cloudy,310,2013-01-05 16:09:00
9:22 AM,15.8,12.2,86,30.09,10.0,NW,20.7,-,N/A,,Scattered Clouds,320,2013-01-05 16:22:00
9:56 AM,17.1,12.0,81,30.22,10.0,NW,18.4,-,N/A,,Clear,320,2013-01-05 16:56:00
10:56 AM,18.0,12.0,78,30.21,10.0,WNW,11.5,-,N/A,,Clear,300,2013-01-05 17:56:00
11:56 AM,19.0,12.9,77,30.19,10.0,WNW,12.7,-,N/A,,Clear,290,2013-01-05 18:56:00
12:56 PM,21.9,15.1,75,30.17,10.0,WNW,10.4,-,N/A,,Clear,290,2013-01-05 19:56:00
1:56 PM,23.0,15.1,72,30.17,10.0,West,8.1,-,N/A,,Clear,270,2013-01-05 20:56:00
3:56 PM,21.0,14.0,74,30.20,10.0,West,12.7,-,N/A,,Clear,280,2013-01-05 22:56:00
4:56 PM,18.0,12.0,78,30.22,10.0,West,11.5,-,N/A,,Clear,280,2013-01-05 23:56:00
5:56 PM,17.1,12.0,81,30.23,10.0,West,12.7,-,N/A,,Clear,270,2013-01-06 00:56:00
6:56 PM,19.0,14.0,81,30.22,10.0,West,15.0,-,N/A,,Clear,280,2013-01-06 01:56:00
7:56 PM,18.0,12.9,81,30.24,10.0,West,16.1,-,N/A,,Clear,280,2013-01-06 02:56:00
8:56 PM,17.1,12.0,81,30.23,10.0,West,15.0,-,N/A,,Clear,280,2013-01-06 03:56:00
9:56 PM,17.1,12.0,81,30.22,10.0,West,15.0,-,N/A,,Clear,280,2013-01-06 04:56:00
10:56 PM,17.1,12.0,81,30.22,10.0,West,6.9,-,N/A,,Clear,270,2013-01-06 05:56:00
11:56 PM,16.0,12.0,84,30.22,10.0,West,8.1,-,N/A,,Clear,270,2013-01-06 06:56:00